Location: Unspecified
(48.7670°N, 0.0000°E)
Time: 04:49:31
(UTC+00:00)

Altair - Pass Details

Date: 29 June 2019
Orbit: 1501 x 1683 km, 47.2° (Epoch: 19 July)

Event Time Altitude Azimuth Distance (km) Brightness Sun altitude
Rises 21:41:47 0° 278° (W) 4,738 10.7 -11.4°
Reaches altitude 10° 21:44:48 10° 277° (W) 3,777 10.1 -11.6°
Maximum altitude 21:54:25 77° 194° (SSW) 1,661 7.6 -12.5°
Drops below altitude 10° 22:04:24 10° 110° (ESE) 3,909 9.2 -13.3°
Enters shadow 22:07:02 - 110° (ESE) 4,735 9.6 -13.5°
Sets 22:07:36 0° 110° (ESE) 4,910 - -13.5°
